Flag for Morocco Weather past 2 weeks in Tangier, Morocco

Now
79 °F

Broken clouds.


Feels Like: 79 °F
Forecast: 65 / 80 °F
Wind: 24 mph from East

Location: Tanger Aerodrome

Current Time: Oct 23, 2014 at 5:21:21 PM

Latest Report: Oct 23, 2014 at 5:00 PM


Visibility: 4 mi

Pressure: 29.98 "Hg

Humidity: 39%

Dew point: 52 °F

Location of TangierLocation

Historic Weather in Tangier — Graph

°F

Tangier temperature yesterday

Maximum temperature yesterday: 97 °F (at 1:30 PM)
Minimum temperature yesterday: 66 °F (at 7:00 AM)
Average temperature yesterday: 79 °F

Past Weeks' High & Low Weather Summary

 TemperatureHumidityPressure
High97 °F (Oct 22, 1:30 PM)94% (Oct 9, 11:00 PM)30.21 "Hg (Oct 9, 11:00 PM)
Low59 °F (Oct 17, 6:30 AM)13% (Oct 22, 1:00 PM)29.80 "Hg (Oct 11, 1:00 PM)
Average71 °F68%30.00 "Hg
* Reported Oct 8 4:00 PM — Oct 23 4:00 PM, Tangier, Weather by CustomWeather, © 2014

Note: Actual official high and low records may vary slightly from our data, if they occured in-between our weather recording intervals... More about our weather records

Advertising

Tangier weather history for previous 24 hours

 ConditionsComfort  
Time TempWeatherWind HumidityBarometerVisibility
4:00 PM
Oct 23
79 °FBroken clouds.24 mph45%30.01 "Hg4 mi
3:30 PM79 °FBroken clouds.21 mph42%30.01 "Hg4 mi
3:00 PM79 °FBroken clouds.23 mph45%30.01 "Hg4 mi
2:00 PM81 °FSunny.26 mph42%30.04 "Hg10 mi
1:30 PM81 °FSunny.24 mph42%30.04 "Hg10 mi
1:00 PM81 °FSunny.25 mph45%30.07 "Hg10 mi
12:30 PM79 °FSunny.22 mph51%30.07 "Hg10 mi
12:00 PM79 °FSunny.25 mph51%30.07 "Hg10 mi
11:30 AM79 °FSunny.22 mph51%30.07 "Hg10 mi
11:00 AM77 °FSunny.25 mph54%30.09 "Hg10 mi
10:30 AM77 °FSunny.23 mph54%30.07 "Hg10 mi
10:00 AM75 °FSunny.20 mph57%30.09 "Hg10 mi
9:30 AM73 °FSunny.24 mph61%30.07 "Hg10 mi
9:00 AM72 °FSunny.20 mph65%30.07 "Hg10 mi
8:30 AM72 °FSunny.20 mph65%30.07 "Hg10 mi
8:00 AM70 °FSunny.21 mph69%30.07 "Hg10 mi
7:30 AM70 °FSunny.21 mph69%30.07 "Hg10 mi
7:00 AM72 °FSunny.21 mph65%30.07 "Hg10 mi
6:30 AM72 °FClear.21 mph65%30.07 "Hg10 mi
6:00 AM72 °FClear.20 mph65%30.07 "Hg10 mi
5:30 AM70 °FClear.17 mph69%30.07 "Hg10 mi
5:00 AM70 °FClear.17 mph73%30.07 "Hg10 mi
4:30 AM70 °FClear.16 mph69%30.07 "Hg10 mi
4:00 AM70 °FClear.18 mph69%30.07 "Hg10 mi
3:30 AM68 °FClear.18 mph78%30.07 "Hg10 mi
3:00 AM68 °FClear.18 mph78%30.07 "Hg10 mi
2:30 AM68 °FClear.17 mph78%30.09 "Hg10 mi
2:00 AM68 °FClear.17 mph78%30.09 "Hg10 mi
1:30 AM68 °FClear.17 mph78%30.09 "Hg10 mi
1:00 AM68 °FClear.18 mph83%30.09 "Hg10 mi
12:30 AM68 °FClear.17 mph83%30.09 "Hg10 mi
12:00 AM68 °FClear.14 mph83%30.09 "Hg10 mi
11:30 PM
Oct 22
68 °FClear.15 mph83%30.09 "Hg10 mi
11:00 PM72 °FClear.13 mph65%30.12 "Hg10 mi
10:30 PM75 °FClear.17 mph47%30.09 "Hg10 mi
10:00 PM81 °FClear.16 mph30%30.09 "Hg10 mi
9:30 PM79 °FClear.12 mph37%30.09 "Hg10 mi
9:00 PM81 °FClear.12 mph32%30.09 "Hg10 mi
8:30 PM82 °FClear.13 mph30%30.09 "Hg10 mi
8:00 PM84 °FClear.15 mph29%30.09 "Hg10 mi
7:30 PM84 °FClear.15 mph29%30.09 "Hg10 mi
7:00 PM84 °FClear.14 mph29%30.09 "Hg10 mi
6:30 PM81 °FPassing clouds.5 mph45%30.09 "HgN/A
6:00 PM86 °FPassing clouds.3 mph38%30.09 "HgN/A
5:30 PM86 °FSunny.9 mph33%30.09 "Hg10 mi
5:00 PM88 °FSunny.9 mph29%30.09 "Hg10 mi
Weather by CustomWeather, © 2014

See weather overviewHow to use our weather pages